| time (UTC) | temp F | wind direction | speed knots | gust knots | rain 1hr in | rain 24hr in | rain mn in | humidity % | barometer mb |
| 20260506182531 | 44 | 270 | 0.9 | 2.6 | 0.00 | 0.00 | 0.00 | 46 | 1013.5 |
| 20260506181531 | 44 | 270 | 0.9 | 3.5 | 0.00 | 0.00 | 0.00 | 45 | 1013.3 |
| 20260506180531 | 45 | 270 | 0.9 | 3.5 | 0.00 | 0.00 | 0.00 | 44 | 1013.3 |
| 20260506175551 | 45 | 270 | 1.7 | 5.2 | 0.00 | 0.00 | 0.00 | 43 | 1013.1 |
| 20260506174531 | 45 | 270 | 1.7 | 6.1 | 0.00 | 0.00 | 0.00 | 42 | 1013.1 |
| 20260506173531 | 46 | 270 | 1.7 | 6.1 | 0.00 | 0.00 | 0.00 | 41 | 1013.0 |
| 20260506172531 | 47 | 270 | 1.7 | 7.0 | 0.00 | 0.00 | 0.00 | 40 | 1012.8 |
| 20260506171530 | 47 | 270 | 1.7 | 7.0 | 0.00 | 0.00 | 0.00 | 39 | 1012.8 |
| 20260506170550 | 47 | 270 | 0.9 | 6.1 | 0.00 | 0.00 | 0.00 | 39 | 1012.7 |
| 20260506165551 | 48 | 270 | 2.6 | 6.1 | 0.00 | 0.00 | 0.00 | 37 | 1012.7 |
| 20260506164531 | 49 | 293 | 3.5 | 8.7 | 0.00 | 0.00 | 0.00 | 36 | 1012.6 |
| 20260506163551 | 49 | 293 | 1.7 | 9.6 | 0.00 | 0.00 | 0.00 | 35 | 1012.5 |
| 20260506162531 | 50 | 315 | 2.6 | 7.8 | 0.00 | 0.00 | 0.00 | 34 | 1012.5 |
| 20260506161531 | 49 | 293 | 3.5 | 10.4 | 0.00 | 0.00 | 0.00 | 34 | 1012.4 |
| 20260506160532 | 49 | 293 | 4.3 | 9.6 | 0.00 | 0.00 | 0.00 | 33 | 1012.4 |
| 20260506155532 | 49 | 293 | 5.2 | 13.0 | 0.00 | 0.00 | 0.00 | 32 | 1012.4 |
| 20260506154531 | 49 | 270 | 2.6 | 9.6 | 0.00 | 0.00 | 0.00 | 32 | 1012.4 |
| 20260506153530 | 50 | 270 | 4.3 | 11.3 | 0.00 | 0.00 | 0.00 | 33 | 1012.4 |
| 20260506152552 | 50 | 315 | 3.5 | 7.8 | 0.00 | 0.00 | 0.00 | 36 | 1012.3 |
| 20260506151531 | 50 | 270 | 6.1 | 11.3 | 0.00 | 0.00 | 0.00 | 32 | 1012.3 |
| 20260506150530 | 50 | 315 | 5.2 | 11.3 | 0.00 | 0.00 | 0.00 | 33 | 1012.2 |
| 20260506145532 | 50 | 293 | 6.1 | 11.3 | 0.00 | 0.00 | 0.00 | 32 | 1012.3 |
| 20260506144532 | 50 | 315 | 6.1 | 13.0 | 0.00 | 0.00 | 0.00 | 33 | 1012.2 |
| 20260506143530 | 51 | 270 | 3.5 | 8.7 | 0.00 | 0.00 | 0.00 | 33 | 1012.2 |
| 20260506142552 | 51 | 293 | 7.0 | 13.9 | 0.00 | 0.00 | 0.00 | 33 | 1012.2 |
| 20260506141551 | 51 | 293 | 3.5 | 11.3 | 0.00 | 0.00 | 0.00 | 34 | 1012.1 |
| 20260506140531 | 51 | 293 | 5.2 | 9.6 | 0.00 | 0.00 | 0.00 | 33 | 1012.1 |
| 20260506135531 | 51 | 293 | 3.5 | 9.6 | 0.00 | 0.00 | 0.00 | 35 | 1012.0 |
| 20260506134531 | 51 | 293 | 5.2 | 10.4 | 0.00 | 0.01 | 0.00 | 34 | 1011.9 |
| 20260506133531 | 52 | 270 | 3.5 | 8.7 | 0.00 | 0.01 | 0.00 | 33 | 1012.0 |
| 20260506132532 | 51 | 293 | 4.3 | 11.3 | 0.00 | 0.01 | 0.00 | 33 | 1012.0 |
| 20260506131531 | 51 | 270 | 4.3 | 13.0 | 0.00 | 0.01 | 0.00 | 35 | 1011.7 |
| 20260506130531 | 52 | 270 | 5.2 | 12.2 | 0.00 | 0.01 | 0.00 | 34 | 1011.8 |
| 20260506125531 | 52 | 315 | 5.2 | 13.0 | 0.00 | 0.01 | 0.00 | 32 | 1011.7 |
| 20260506124552 | 52 | 270 | 2.6 | 8.7 | 0.00 | 0.01 | 0.00 | 36 | 1011.6 |
| 20260506123532 | 52 | 293 | 5.2 | 17.4 | 0.00 | 0.01 | 0.00 | 31 | 1011.5 |
| 20260506122531 | 52 | 270 | 2.6 | 9.6 | 0.00 | 0.01 | 0.00 | 34 | 1011.6 |
| 20260506121531 | 52 | 270 | 6.1 | 11.3 | 0.00 | 0.01 | 0.00 | 33 | 1011.7 |
| 20260506120531 | 52 | 293 | 3.5 | 9.6 | 0.00 | 0.01 | 0.00 | 34 | 1011.6 |
| 20260506115551 | 52 | 270 | 3.5 | 13.0 | 0.00 | 0.01 | 0.00 | 36 | 1011.7 |
| 20260506114531 | 51 | 270 | 3.5 | 9.6 | 0.00 | 0.01 | 0.00 | 34 | 1011.5 |
| 20260506113531 | 51 | 248 | 2.6 | 8.7 | 0.00 | 0.01 | 0.00 | 36 | 1011.5 |
| 20260506112551 | 51 | 270 | 3.5 | 13.0 | 0.00 | 0.01 | 0.00 | 36 | 1011.4 |
| 20260506111551 | 51 | 293 | 8.7 | 19.1 | 0.00 | 0.01 | 0.00 | 33 | 1011.4 |
| 20260506110531 | 51 | 270 | 5.2 | 12.2 | 0.00 | 0.01 | 0.00 | 36 | 1011.3 |
| 20260506105531 | 51 | 315 | 7.0 | 13.9 | 0.00 | 0.01 | 0.00 | 36 | 1011.4 |
| 20260506104551 | 50 | 293 | 5.2 | 9.6 | 0.00 | 0.01 | 0.00 | 37 | 1011.3 |
| 20260506103531 | 50 | 293 | 4.3 | 16.5 | 0.00 | 0.01 | 0.00 | 38 | 1011.4 |
| 20260506102531 | 50 | 270 | 7.0 | 14.8 | 0.00 | 0.01 | 0.00 | 36 | 1011.3 |
| 20260506101531 | 50 | 270 | 4.3 | 13.0 | 0.00 | 0.01 | 0.00 | 37 | 1011.2 |
| 20260506100531 | 50 | 270 | 6.1 | 10.4 | 0.00 | 0.01 | 0.00 | 38 | 1011.1 |
| 20260506095530 | 50 | 248 | 4.3 | 10.4 | 0.00 | 0.01 | 0.00 | 37 | 1011.0 |
| 20260506094531 | 50 | 293 | 4.3 | 15.6 | 0.00 | 0.01 | 0.00 | 41 | 1011.0 |
| 20260506093532 | 49 | 293 | 2.6 | 9.6 | 0.00 | 0.01 | 0.00 | 44 | 1010.9 |
| 20260506092531 | 49 | 315 | 3.5 | 11.3 | 0.00 | 0.01 | 0.00 | 42 | 1011.0 |
| 20260506091551 | 48 | 293 | 7.0 | 13.0 | 0.00 | 0.01 | 0.00 | 43 | 1010.9 |
| 20260506090530 | 48 | 293 | 4.3 | 11.3 | 0.00 | 0.01 | 0.00 | 41 | 1010.9 |
| 20260506085531 | 48 | 293 | 4.3 | 13.0 | 0.00 | 0.01 | 0.00 | 44 | 1010.9 |
| 20260506084530 | 48 | 270 | 7.0 | 13.9 | 0.00 | 0.01 | 0.00 | 43 | 1010.9 |
| 20260506083530 | 48 | 270 | 5.2 | 9.6 | 0.00 | 0.01 | 0.00 | 45 | 1011.0 |
| 20260506082531 | 47 | 270 | 4.3 | 11.3 | 0.00 | 0.01 | 0.00 | 46 | 1010.8 |
| 20260506081531 | 47 | 270 | 2.6 | 9.6 | 0.00 | 0.01 | 0.00 | 49 | 1010.6 |
| 20260506080529 | 46 | 293 | 4.3 | 13.9 | 0.00 | 0.01 | 0.00 | 48 | 1010.6 |
| 20260506072531 | 45 | 270 | 5.2 | 11.3 | 0.00 | 0.01 | 0.00 | 51 | 1010.3 |
| 20260506071530 | 45 | 248 | 5.2 | 12.2 | 0.00 | 0.01 | 0.00 | 54 | 1010.3 |
| 20260506070531 | 45 | 270 | 5.2 | 11.3 | 0.00 | 0.01 | 0.00 | 54 | 1010.2 |
| 20260506061530 | 44 | 293 | 2.6 | 7.8 | 0.00 | 0.01 | 0.00 | 61 | 1009.9 |
| 20260506060551 | 44 | 293 | 3.5 | 10.4 | 0.00 | 0.01 | 0.00 | 60 | 1009.8 |
| 20260506050530 | 41 | 270 | 0.9 | 5.2 | 0.00 | 0.02 | 0.00 | 77 | 1009.2 |
| 20260506044531 | 38 | 0.0 | 6.1 | 0.00 | 0.02 | 0.00 | 78 | 1009.1 | |
| 20260506043531 | 38 | 0.0 | 2.6 | 0.00 | 0.03 | 0.00 | 76 | 1009.0 | |
| 20260506042531 | 37 | 0.0 | 2.6 | 0.00 | 0.04 | 0.00 | 74 | 1008.9 | |
| 20260506041531 | 36 | 293 | 0.9 | 3.5 | 0.00 | 0.04 | 0.00 | 73 | 1008.9 |
| 20260506040531 | 36 | 0.0 | 2.6 | 0.00 | 0.04 | 0.00 | 72 | 1008.7 | |
| 20260506035532 | 35 | 0.0 | 3.5 | 0.00 | 0.05 | 0.00 | 68 | 1008.6 | |
| 20260506034531 | 35 | 0.0 | 2.6 | 0.00 | 0.05 | 0.00 | 64 | 1008.5 | |
| 20260506033532 | 34 | 293 | 0.9 | 3.5 | 0.00 | 0.06 | 0.00 | 59 | 1008.4 |
| 20260506032531 | 33 | 293 | 0.9 | 6.1 | 0.00 | 0.06 | 0.00 | 54 | 1008.2 |
| 20260506031531 | 33 | 0.0 | 1.7 | 0.00 | 0.07 | 0.00 | 58 | 1008.1 | |
| 20260506030533 | 33 | 0.0 | 0.0 | 0.00 | 0.08 | 0.00 | 61 | 1008.0 | |
| 20260506025552 | 33 | 0.0 | 2.6 | 0.00 | 0.08 | 0.00 | 59 | 1007.9 | |
| 20260506024553 | 33 | 270 | 0.9 | 5.2 | 0.00 | 0.08 | 0.00 | 56 | 1007.8 |
| 20260506023533 | 33 | 270 | 0.9 | 5.2 | 0.00 | 0.08 | 0.00 | 56 | 1007.7 |
| 20260506022552 | 33 | 270 | 2.6 | 7.8 | 0.00 | 0.08 | 0.00 | 56 | 1007.6 |
| 20260506021533 | 32 | 248 | 2.6 | 6.1 | 0.00 | 0.08 | 0.00 | 60 | 1007.6 |
| 20260506020533 | 32 | 270 | 1.7 | 7.0 | 0.00 | 0.08 | 0.00 | 64 | 1007.5 |
| 20260506015531 | 32 | 293 | 0.9 | 3.5 | 0.00 | 0.08 | 0.00 | 65 | 1007.4 |
| 20260506014531 | 33 | 293 | 1.7 | 3.5 | 0.00 | 0.08 | 0.00 | 67 | 1007.4 |
| 20260506013530 | 33 | 293 | 1.7 | 5.2 | 0.00 | 0.08 | 0.00 | 68 | 1007.2 |
| 20260506012533 | 33 | 270 | 1.7 | 3.5 | 0.00 | 0.08 | 0.00 | 70 | 1007.0 |
| 20260506011611 | 33 | 270 | 0.9 | 3.5 | 0.00 | 0.08 | 0.00 | 72 | 1007.0 |
| 20260506010531 | 33 | 270 | 0.9 | 1.7 | 0.00 | 0.08 | 0.00 | 74 | 1007.0 |
| 20260506005531 | 33 | 270 | 1.7 | 3.5 | 0.00 | 0.08 | 0.00 | 74 | 1006.9 |
| 20260506004532 | 33 | 270 | 0.9 | 3.5 | 0.00 | 0.08 | 0.00 | 76 | 1006.8 |
| 20260506003531 | 33 | 0.0 | 1.7 | 0.00 | 0.08 | 0.00 | 78 | 1006.8 | |
| 20260506002531 | 34 | 0.0 | 2.6 | 0.00 | 0.08 | 0.00 | 79 | 1006.7 | |
| 20260506001531 | 34 | 0.0 | 2.6 | 0.00 | 0.08 | 0.00 | 79 | 1006.7 | |
| 20260506000531 | 34 | 270 | 0.9 | 5.2 | 0.00 | 0.08 | 0.00 | 79 | 1006.5 |
| 20260505235531 | 35 | 0.0 | 1.7 | 0.00 | 0.08 | 0.00 | 79 | 1006.4 | |
| 20260505234532 | 35 | 293 | 1.7 | 7.0 | 0.00 | 0.08 | 0.00 | 79 | 1006.4 |
| 20260505233531 | 35 | 293 | 1.7 | 5.2 | 0.00 | 0.08 | 0.00 | 79 | 1006.5 |
| 20260505232532 | 35 | 270 | 4.3 | 7.0 | 0.00 | 0.08 | 0.00 | 79 | 1006.5 |
| 20260505231532 | 35 | 270 | 2.6 | 6.1 | 0.00 | 0.08 | 0.00 | 79 | 1006.4 |
| 20260505230531 | 35 | 293 | 2.6 | 8.7 | 0.00 | 0.08 | 0.00 | 78 | 1006.4 |
| 20260505225531 | 36 | 293 | 1.7 | 8.7 | 0.00 | 0.08 | 0.00 | 77 | 1006.3 |
| 20260505224532 | 36 | 315 | 2.6 | 7.8 | 0.00 | 0.08 | 0.00 | 76 | 1006.3 |
| 20260505223612 | 36 | 293 | 1.7 | 4.3 | 0.00 | 0.08 | 0.00 | 75 | 1006.1 |
| 20260505222531 | 37 | 293 | 3.5 | 7.8 | 0.00 | 0.08 | 0.00 | 74 | 1006.2 |
| 20260505221531 | 37 | 293 | 4.3 | 9.6 | 0.00 | 0.08 | 0.00 | 74 | 1006.2 |
| 20260505220551 | 37 | 270 | 3.5 | 8.7 | 0.00 | 0.08 | 0.00 | 73 | 1006.2 |
| 20260505215530 | 37 | 270 | 2.6 | 6.1 | 0.00 | 0.08 | 0.00 | 72 | 1006.1 |
| 20260505214531 | 38 | 270 | 3.5 | 7.8 | 0.00 | 0.08 | 0.00 | 72 | 1006.1 |
| 20260505213530 | 38 | 293 | 5.2 | 9.6 | 0.00 | 0.08 | 0.00 | 71 | 1006.0 |
| 20260505212531 | 38 | 293 | 3.5 | 10.4 | 0.00 | 0.08 | 0.00 | 71 | 1005.9 |
| 20260505211531 | 38 | 293 | 4.3 | 9.6 | 0.00 | 0.08 | 0.00 | 71 | 1005.9 |
| 20260505210532 | 38 | 293 | 4.3 | 10.4 | 0.00 | 0.08 | 0.00 | 71 | 1005.7 |
| 20260505205531 | 39 | 315 | 2.6 | 7.8 | 0.00 | 0.08 | 0.08 | 70 | 1005.6 |
| 20260505204531 | 39 | 293 | 3.5 | 7.8 | 0.00 | 0.08 | 0.08 | 69 | 1005.5 |
| 20260505203531 | 39 | 293 | 2.6 | 7.0 | 0.00 | 0.08 | 0.08 | 69 | 1005.5 |
| 20260505202531 | 39 | 270 | 3.5 | 7.8 | 0.00 | 0.08 | 0.08 | 68 | 1005.3 |
| 20260505201531 | 40 | 270 | 3.5 | 9.6 | 0.00 | 0.08 | 0.08 | 67 | 1005.3 |
| 20260505200533 | 40 | 293 | 3.5 | 7.8 | 0.00 | 0.08 | 0.08 | 66 | 1005.2 |
| 20260505195532 | 40 | 293 | 4.3 | 8.7 | 0.00 | 0.08 | 0.08 | 64 | 1005.1 |
| 20260505194532 | 40 | 293 | 3.5 | 7.8 | 0.00 | 0.08 | 0.08 | 63 | 1005.0 |
| 20260505193532 | 41 | 270 | 3.5 | 10.4 | 0.00 | 0.08 | 0.08 | 62 | 1004.9 |
| 20260505192531 | 41 | 270 | 3.5 | 8.7 | 0.00 | 0.08 | 0.08 | 59 | 1004.8 |
| 20260505191531 | 41 | 270 | 2.6 | 8.7 | 0.00 | 0.08 | 0.08 | 57 | 1004.8 |
| 20260505190532 | 41 | 270 | 1.7 | 6.1 | 0.00 | 0.08 | 0.08 | 56 | 1004.7 |
| 20260505185532 | 42 | 270 | 1.7 | 7.0 | 0.00 | 0.08 | 0.08 | 55 | 1004.7 |
| 20260505184530 | 42 | 270 | 0.9 | 6.1 | 0.00 | 0.08 | 0.08 | 55 | 1004.5 |
| 20260505183531 | 43 | 270 | 0.9 | 3.5 | 0.00 | 0.08 | 0.08 | 53 | 1004.5 |